Location: Lhota
(50.0887°N, 14.0116°E)
Time: 06:17:38
(UTC+00:00)

In-Cosmos 22 - Pass Details

Date: 19 May 2025
Orbit: 784 x 874 km, 81.2° (Epoch: 14 June)

Event Time Altitude Azimuth Distance (km) Brightness Sun altitude
Exits shadow 23:31:01 36° 181° (S) 1,338 4.7 -19.6°
Maximum altitude 23:33:27 80° 99° (E) 891 4.2 -19.5°
Drops below altitude 10° 23:39:15 10° 14° (NNE) 2,538 7.9 -19.4°
Sets 23:41:42 0° 14° (NNE) 3,481 9.1 -19.3°
